#timestamp,LO_Frequency,Hit,Temp,Hum 
1478156415.1,286046982.0,N,0.0,0.0
1478156435.9,286046979.5,N,0.0,0.0
1478156455.7,286046982.0,N,0.0,0.0
1478156475.5,286046980.5,N,0.0,0.0
1478156495.4,286046981.3,N,0.0,0.0
1478156515.2,286046981.2,N,0.0,0.0
1478156535.1,286046983.1,N,0.0,0.0
1478156536.0,286046983.1,N,0.0,0.0
1478156555.8,286046983.1,N,0.0,0.0
1478156575.6,286046981.8,N,0.0,0.0
1478156595.5,286046977.4,N,0.0,0.0
1478156615.3,286046980.2,N,0.0,0.0
1478156635.1,286046977.6,N,0.0,0.0
1478156655.9,286046977.3,N,0.0,0.0
1478156675.7,286046978.0,N,0.0,0.0
1478156695.5,286046978.6,N,0.0,0.0
1478156715.4,286046978.3,N,0.0,0.0
1478156735.2,286046978.2,N,0.0,0.0
1478156755.0,286046977.8,N,0.0,0.0
1478156755.9,286046977.8,N,0.0,0.0
1478156775.8,286046980.3,N,0.0,0.0
1478156795.6,286046981.3,N,0.0,0.0
1478156815.5,286046983.3,N,0.0,0.0
1478156835.3,286046978.9,N,0.0,0.0
1478156855.1,286046981.6,N,0.0,0.0
1478156875.9,286046980.7,N,0.0,0.0
1478156895.7,286046979.4,N,0.0,0.0
1478156915.5,286046981.0,N,0.0,0.0
1478156935.4,286046979.5,N,0.0,0.0
1478156955.2,286046980.3,N,0.0,0.0
1478156975.0,286046980.2,N,0.0,0.0
1478156975.9,286046980.2,N,0.0,0.0
1478156995.8,286046978.1,N,0.0,0.0
1478157015.6,286046978.7,N,0.0,0.0
1478157035.4,286046978.0,N,0.0,0.0
1478157055.3,286046978.3,N,0.0,0.0
1478157075.1,286046978.8,N,0.0,0.0
1478157095.8,286046978.4,N,0.0,0.0
1478157115.7,286046978.4,N,0.0,0.0
1478157135.5,286046976.2,N,0.0,0.0
1478157155.4,286046978.6,N,0.0,0.0
1478157175.2,286046979.0,N,0.0,0.0
1478157195.0,286046983.0,N,0.0,0.0
1478157195.9,286046983.0,N,0.0,0.0
1478157215.8,286046980.6,N,0.0,0.0
1478157235.6,286046979.5,N,0.0,0.0
1478157255.4,286046980.4,N,0.0,0.0
1478157275.3,286046977.4,N,0.0,0.0
1478157295.1,286046977.5,N,0.0,0.0
1478157315.8,286046977.7,N,0.0,0.0
1478157335.7,286046975.8,N,0.0,0.0
1478157355.5,286046976.9,N,0.0,0.0
1478157375.3,286046974.5,N,0.0,0.0
1478157395.2,286046975.1,N,0.0,0.0
1478157415.0,286046973.0,N,0.0,0.0
1478157415.9,286046973.0,N,0.0,0.0
1478157435.8,286046972.9,N,0.0,0.0
1478157455.6,286046975.5,N,0.0,0.0
1478157475.4,286046977.1,N,0.0,0.0
1478157495.3,286046977.7,N,0.0,0.0
1478157515.1,286046973.5,N,0.0,0.0
1478157516.0,286046973.5,N,0.0,0.0
1478157535.8,286046975.7,N,0.0,0.0
1478157555.7,286046976.3,N,0.0,0.0
1478157575.5,286046974.4,N,0.0,0.0
1478157595.3,286046974.1,N,0.0,0.0
1478157615.2,286046974.1,N,0.0,0.0
1478157635.0,286046972.6,N,0.0,0.0
1478157635.9,286046972.6,N,0.0,0.0
1478157655.7,286046972.5,N,0.0,0.0
1478157675.6,286046975.6,N,0.0,0.0
1478157695.4,286046973.7,N,0.0,0.0
1478157715.2,286046972.5,N,0.0,0.0
1478157735.1,286046978.2,N,0.0,0.0
1478157736.0,286046978.2,N,0.0,0.0
1478157755.8,286046973.6,N,0.0,0.0
1478157775.7,286046972.9,N,0.0,0.0
1478157795.5,286046975.3,N,0.0,0.0
1478157815.3,286046972.5,N,0.0,0.0
1478157835.2,286046976.5,N,0.0,0.0
1478157855.9,286046974.8,N,0.0,0.0
1478157875.7,286046972.6,N,0.0,0.0
1478157895.6,286046977.0,N,0.0,0.0
1478157915.4,286046978.5,N,0.0,0.0
1478157935.2,286046976.0,N,0.0,0.0
1478157955.1,286046976.4,N,0.0,0.0
1478157956.0,286046976.4,N,0.0,0.0
1478157975.8,286046975.2,N,0.0,0.0
1478157995.7,286046974.8,N,0.0,0.0
1478158015.5,286046974.6,N,0.0,0.0
1478158035.3,286046973.1,N,0.0,0.0
1478158055.2,286046976.2,N,0.0,0.0
1478158075.9,286046970.5,N,0.0,0.0
1478158095.7,286046971.9,N,0.0,0.0
1478158115.6,286046970.9,N,0.0,0.0
1478158135.4,286046972.0,N,0.0,0.0
1478158155.2,286046970.0,N,0.0,0.0
1478158175.1,286046970.9,N,0.0,0.0
1478158176.0,286046970.9,N,0.0,0.0
1478158195.8,286046974.5,N,0.0,0.0
1478158215.6,286046973.8,N,0.0,0.0
1478158235.5,286046972.5,N,0.0,0.0
1478158255.3,286046977.1,N,0.0,0.0
1478158275.1,286046971.5,N,0.0,0.0
1478158295.9,286046972.6,N,0.0,0.0
1478158315.7,286046974.0,N,0.0,0.0
1478158335.6,286046971.5,N,0.0,0.0
1478158355.4,286046971.7,N,0.0,0.0
1478158375.2,286046975.3,N,0.0,0.0
1478158395.1,286046974.8,N,0.0,0.0
1478158396.0,286046974.8,N,0.0,0.0
1478158415.8,286046971.5,N,0.0,0.0
1478158435.6,286046972.1,N,0.0,0.0
1478158455.5,286046971.0,N,0.0,0.0
1478158475.3,286046972.4,N,0.0,0.0
1478158495.1,286046972.6,N,0.0,0.0
1478158515.9,286046973.8,N,0.0,0.0
1478158535.7,286046973.7,N,0.0,0.0
1478158555.5,286046973.6,N,0.0,0.0
1478158575.4,286046973.3,N,0.0,0.0
1478158595.2,286046973.1,N,0.0,0.0
1478158615.0,286046973.9,N,0.0,0.0
1478158616.0,286046973.9,N,0.0,0.0
1478158635.8,286046971.3,N,0.0,0.0
1478158655.6,286046971.3,N,0.0,0.0
1478158675.5,286046969.4,N,0.0,0.0
1478158695.3,286046973.6,N,0.0,0.0
1478158715.1,286046978.2,N,0.0,0.0
1478158735.9,286046969.6,N,0.0,0.0
1478158755.7,286046967.6,N,0.0,0.0
1478158775.5,286046955.1,N,0.0,0.0
1478158795.4,286046970.7,N,0.0,0.0
1478158815.2,286046968.1,N,0.0,0.0
1478158835.0,286046968.4,N,0.0,0.0
1478158835.9,286046968.4,N,0.0,0.0
1478158855.8,286046969.8,N,0.0,0.0
1478158875.6,286046970.1,N,0.0,0.0
1478158895.4,286046969.0,N,0.0,0.0
1478158915.3,286046968.4,N,0.0,0.0
1478158935.1,286046970.4,N,0.0,0.0
1478158955.8,286046966.7,N,0.0,0.0
1478158975.7,286046966.6,N,0.0,0.0
1478158995.5,286046965.4,N,0.0,0.0
1478159015.4,286046967.6,N,0.0,0.0
1478159035.2,286046964.9,N,0.0,0.0
1478159055.0,286046968.9,N,0.0,0.0
1478159055.9,286046968.9,N,0.0,0.0
1478159075.8,286046966.6,N,0.0,0.0
1478159095.6,286046966.8,N,0.0,0.0
1478159115.4,286046966.8,N,0.0,0.0
1478159135.3,286046966.9,N,0.0,0.0
1478159155.1,286046966.6,N,0.0,0.0
1478159175.8,286046967.6,N,0.0,0.0
1478159195.7,286046965.4,N,0.0,0.0
1478159215.5,286046966.7,N,0.0,0.0
1478159235.3,286046965.3,N,0.0,0.0
1478159255.2,286046964.5,N,0.0,0.0
1478159275.0,286046967.4,N,0.0,0.0
1478159275.9,286046967.4,N,0.0,0.0
1478159295.8,286046967.6,N,0.0,0.0
1478159315.6,286046963.0,N,0.0,0.0
1478159335.4,286046965.0,N,0.0,0.0
1478159355.3,286046967.2,N,0.0,0.0
1478159375.1,286046964.6,N,0.0,0.0
1478159376.0,286046964.6,N,0.0,0.0
1478159395.8,286046964.7,N,0.0,0.0
1478159415.7,286046957.1,N,0.0,0.0
1478159435.5,286046961.9,N,0.0,0.0
1478159455.3,286046967.8,N,0.0,0.0
1478159475.2,286046960.0,N,0.0,0.0
1478159495.0,286046961.9,N,0.0,0.0
1478159495.9,286046961.9,N,0.0,0.0
1478159515.7,286046963.8,N,0.0,0.0
1478159535.6,286046963.2,N,0.0,0.0
1478159555.4,286046962.0,N,0.0,0.0
1478159575.3,286046963.8,N,0.0,0.0
1478159595.1,286046961.0,N,0.0,0.0
1478159596.0,286046961.0,N,0.0,0.0
1478159615.8,286046963.5,N,0.0,0.0
1478159635.7,286046961.9,N,0.0,0.0
1478159655.5,286046960.0,N,0.0,0.0
1478159675.3,286046964.4,N,0.0,0.0
1478159695.2,286046962.2,N,0.0,0.0
1478159715.9,286046961.5,N,0.0,0.0
1478159735.7,286046964.8,N,0.0,0.0
1478159755.6,286046962.4,N,0.0,0.0
1478159775.4,286046960.0,N,0.0,0.0
1478159795.2,286046961.8,N,0.0,0.0
1478159815.1,286046961.9,N,0.0,0.0
1478159816.0,286046961.9,N,0.0,0.0
1478159835.8,286046961.6,N,0.0,0.0
1478159855.7,286046963.3,N,0.0,0.0
1478159875.5,286046962.1,N,0.0,0.0
1478159895.3,286046960.8,N,0.0,0.0
1478159915.2,286046958.6,N,0.0,0.0
1478159935.9,286046958.3,N,0.0,0.0
1478159955.7,286046958.5,N,0.0,0.0
1478159975.6,286046958.4,N,0.0,0.0
1478159995.4,286046959.3,N,0.0,0.0
